Theta_e
285 281 282 282 284 285 285 286 286 283 282 279 280 281 281 282 282 280 283 280 281 283 284 283 283 284 284 284 284 284 283 281 280 279 279 280 280 279 278 278 279 279 279 279 279 279 278 277 277 276 276 275 275 275 275 274 275 274 274 275 274 274 274 274 273 273 273 273 272 272 271 270 270 269 269 268 268 268 268 268 268 268 268 268 268 267 268
286 283 282 283 283 282 281 282 284 284 282 280 282 283 283 283 284 284 281 280 282 284 282 283 285 285 284 283 282 281 281 281 279 279 279 280 280 279 278 279 279 279 279 279 279 278 277 277 277 276 276 275 275 275 275 274 274 274 274 274 273 273 273 272 272 272 271 270 270 270 269 268 267 267 266 266 266 266 266 266 266 266 266 266 266 265 265
283 280 278 279 279 278 279 281 281 280 279 280 281 282 282 281 281 282 281 280 280 282 280 281 280 279 280 281 280 282 281 279 279 279 280 280 279 279 279 279 279 279 278 278 278 277 277 277 277 277 277 276 275 274 274 274 274 273 273 272 272 271 272 271 270 270 269 268 268 267 267 266 264 264 265 264 263 264 263 264 264 264 264 264 264 264 264
281 278 279 278 278 279 278 280 283 280 279 278 280 278 280 281 280 282 281 279 280 284 280 281 280 279 281 282 282 281 279 279 279 279 279 279 279 279 279 279 278 278 278 277 277 277 277 277 277 277 276 275 274 274 273 273 273 272 271 271 271 270 270 269 269 268 267 266 265 265 264 263 263 262 261 261 261 262 261 262 263 262 263 263 263 263 263
280 277 278 278 277 279 277 279 281 283 281 283 278 280 280 282 283 279 278 280 285 282 279 279 279 279 280 281 280 280 280 279 279 279 280 280 279 279 279 279 278 278 278 278 278 278 277 276 277 277 276 275 274 274 273 273 271 270 270 270 269 268 268 267 267 266 265 263 263 262 262 261 261 260 260 261 260 260 260 261 261 261 262 262 262 262 262
276 272 275 277 276 271 277 283 285 286 282 282 279 278 279 280 282 281 284 283 280 277 278 279 280 279 279 280 281 281 281 280 278 278 279 279 279 279 278 278 279 279 278 277 277 277 276 276 276 276 275 275 274 273 272 270 269 269 269 268 267 267 266 266 265 265 264 262 262 261 261 260 260 259 259 259 260 260 260 260 260 260 260 261 261 261 261
271 273 274 274 269 275 279 275 276 277 281 282 281 282 282 280 281 281 280 280 278 280 280 281 281 279 277 277 278 277 279 280 279 279 279 279 278 278 278 277 277 277 277 277 276 275 275 275 274 274 273 273 272 271 270 269 268 268 267 267 266 266 265 265 264 262 263 262 260 261 260 259 258 258 259 259 259 260 259 260 260 259 259 259 259 260 260
272 271 274 269 272 277 276 275 275 277 276 276 276 274 276 276 278 280 280 281 280 281 281 280 276 278 277 274 274 276 276 278 280 279 279 279 278 278 278 278 278 277 277 277 277 276 275 274 273 273 273 272 270 269 268 268 267 267 266 265 265 264 264 263 262 263 261 260 259 259 260 258 258 259 259 258 258 259 258 259 258 259 259 259 259 259 259
270 274 272 276 278 278 278 273 274 276 275 274 274 271 275 278 278 278 278 279 280 280 279 277 273 274 275 276 277 275 274 275 278 280 280 279 279 279 278 278 278 278 278 277 277 275 274 273 273 272 271 270 269 267 266 265 265 265 265 263 264 264 262 262 262 262 262 260 259 258 258 258 257 257 259 258 258 257 257 258 258 258 258 258 258 258 258
275 271 270 269 271 271 278 279 277 278 277 277 276 276 270 276 272 277 277 277 279 278 276 273 273 274 275 273 277 276 275 275 276 276 277 276 277 277 276 275 275 276 276 276 275 275 273 272 271 270 269 268 267 266 265 265 264 264 263 263 263 262 262 261 262 261 261 259 258 257 256 256 256 258 257 257 256 257 257 257 257 257 258 257 258 258 258
272 272 271 271 270 273 279 276 275 275 275 277 275 271 267 274 271 276 277 277 277 275 275 271 273 272 268 271 276 278 276 275 275 276 276 276 275 275 275 275 276 276 276 276 274 273 272 270 269 268 267 266 266 265 265 264 263 263 263 263 262 261 262 262 261 260 259 258 258 257 256 257 256 256 256 256 257 256 257 256 257 257 257 257 257 257 257
274 272 271 271 274 272 275 271 274 274 274 275 274 262 263 269 273 274 275 276 276 274 275 273 273 273 268 272 276 277 277 277 276 276 277 276 276 276 275 274 275 275 275 272 271 271 271 271 268 266 265 266 265 265 264 264 263 262 263 262 262 262 261 261 259 258 258 258 257 256 257 256 255 256 256 255 255 256 256 256 256 256 256 256 256 256 257
276 277 273 271 272 277 273 272 274 273 273 273 263 266 268 271 272 273 276 275 276 275 272 274 271 275 278 278 278 274 274 275 276 275 275 276 276 276 275 275 277 274 274 274 273 273 272 269 266 265 265 265 265 263 263 263 262 263 262 262 261 261 261 259 258 258 257 256 255 255 255 255 256 255 255 256 256 255 255 255 255 255 255 255 256 256 257
274 275 273 273 276 279 274 273 275 275 274 264 267 272 273 275 273 273 275 276 275 274 274 275 277 278 278 277 275 274 274 276 275 276 275 274 274 274 274 274 274 273 272 272 270 269 267 266 265 264 265 265 263 263 262 262 262 262 261 261 260 258 258 258 257 256 255 254 255 254 254 253 253 254 254 254 255 254 255 255 254 254 255 255 255 256 256
270 271 270 270 267 275 276 276 274 275 270 270 274 273 274 274 275 274 274 275 275 275 275 276 277 277 275 275 275 275 274 274 275 274 274 275 275 274 273 273 272 273 271 271 270 268 266 264 264 264 263 263 262 261 262 262 261 261 261 260 259 258 257 256 255 254 253 253 254 253 253 254 253 253 254 253 253 254 254 254 254 254 254 255 255 255 256
267 271 268 269 277 275 277 278 274 273 277 276 275 276 275 275 274 275 275 275 275 275 276 275 275 274 274 274 274 274 274 274 274 273 273 273 274 273 273 273 273 271 272 270 268 265 264 263 263 264 263 262 261 261 262 262 261 259 259 257 256 256 255 254 253 253 252 252 253 252 252 252 251 252 253 252 253 253 254 253 253 253 254 254 254 254 254
269 268 273 273 272 276 278 279 277 278 280 276 276 276 277 276 275 274 275 276 276 275 276 275 275 274 274 275 276 275 275 275 274 274 274 274 274 275 274 273 271 270 271 269 267 263 263 262 262 261 261 262 260 260 261 261 260 258 256 255 254 252 251 250 251 251 250 251 251 251 251 252 252 253 253 251 253 253 253 253 253 253 254 253 253 254 255
272 273 274 273 273 275 277 278 277 277 278 276 274 275 275 275 276 276 276 276 275 275 275 275 273 274 275 275 275 274 274 274 274 273 273 272 272 271 270 269 269 269 267 265 264 263 262 261 261 261 261 261 261 259 260 260 258 257 255 253 252 252 251 251 252 250 250 252 251 252 252 252 253 253 253 253 253 253 253 253 253 253 253 253 253 255 256
269 267 273 274 275 274 276 279 279 276 276 277 277 275 276 276 275 275 276 276 276 275 275 275 276 275 275 274 275 275 274 274 274 274 274 274 274 272 272 272 268 266 265 265 264 263 263 262 261 261 260 260 260 260 259 258 257 254 252 253 254 254 254 253 251 250 250 251 252 253 251 252 252 253 253 252 252 253 253 253 252 252 253 254 255 256 257
270 268 271 273 273 274 276 278 278 278 279 278 276 278 278 278 276 275 276 274 273 273 273 275 275 275 275 274 274 274 274 275 275 274 273 273 272 271 271 268 267 266 266 267 265 264 264 263 262 261 260 260 259 259 259 258 255 254 255 255 255 255 254 251 251 251 251 254 255 253 252 251 252 253 252 252 252 253 253 253 253 253 254 255 257 258 259
271 273 273 272 273 274 275 275 276 277 278 278 276 276 276 275 274 273 273 274 275 274 275 274 274 273 274 274 275 274 275 274 274 274 274 273 273 271 269 266 266 268 267 267 266 265 266 264 262 261 260 260 258 258 259 256 255 256 256 256 255 253 251 251 250 252 252 252 252 252 252 252 252 253 253 253 254 254 256 256 256 255 256 257 259 260 260
264 268 272 273 267 267 274 276 277 277 278 277 276 275 273 273 273 273 274 274 272 273 274 274 273 273 275 274 273 273 274 275 275 274 273 272 270 269 268 266 266 266 266 267 266 265 264 262 261 260 259 258 257 258 257 256 256 256 256 255 252 251 251 251 250 250 252 251 250 252 251 252 252 253 257 261 260 259 259 263 267 268 267 262 264 266 267
266 272 275 276 277 277 276 277 278 278 277 276 275 276 276 275 275 275 274 274 273 273 273 273 274 274 275 275 273 273 273 274 274 274 273 271 269 268 265 264 263 265 265 264 263 262 262 260 260 259 258 256 255 256 257 257 256 256 256 254 253 252 252 251 252 251 251 252 252 251 252 252 252 252 253 255 261 264 265 265 267 268 269 270 271 271 269
273 275 275 276 275 276 277 276 275 276 277 276 276 277 277 277 276 274 274 275 276 275 275 272 273 275 274 275 273 273 273 273 272 272 271 271 270 267 265 266 265 264 263 262 263 263 260 259 258 257 256 256 256 256 257 257 256 255 254 254 253 252 252 252 253 254 252 252 252 252 252 252 252 252 252 252 254 259 263 264 265 266 268 269 270 269 269
277 275 275 276 277 277 278 277 275 276 276 276 277 277 277 276 275 274 274 275 274 275 276 276 273 273 274 274 273 273 273 273 272 272 269 268 268 266 265 264 263 264 264 263 260 259 257 257 256 256 256 256 255 255 254 254 255 253 253 252 252 251 251 252 253 254 253 252 252 252 251 251 251 251 252 251 251 252 256 261 263 264 266 267 267 267 268
278 275 274 274 274 276 276 276 276 275 273 275 275 275 276 276 276 274 274 275 276 274 274 275 274 272 272 273 273 272 270 271 268 267 265 265 263 262 263 263 264 262 260 259 258 257 256 255 256 255 255 255 255 255 254 254 254 253 253 252 252 251 251 252 252 252 252 252 252 252 252 253 252 252 252 252 251 252 252 253 255 258 261 263 264 266 266
276 277 274 274 275 276 276 276 279 281 276 275 275 277 277 275 275 274 274 271 272 273 273 274 274 272 269 270 270 269 271 267 264 265 266 265 264 265 263 260 260 259 258 257 256 256 256 255 255 255 255 255 254 254 252 251 251 251 251 252 250 252 254 254 252 252 253 254 253 252 252 252 251 251 252 252 253 253 252 252 252 253 254 255 259 262 262
278 277 278 276 276 278 279 278 278 280 276 273 274 275 275 272 271 269 271 273 272 270 270 269 269 266 269 268 266 265 264 264 266 264 263 264 261 258 258 258 257 257 257 256 255 255 255 255 254 255 255 254 253 253 251 250 250 250 251 252 252 253 252 253 253 253 253 252 253 253 252 251 252 252 253 253 253 253 253 253 253 252 253 254 254 259 263
277 276 277 280 281 281 280 275 273 275 276 273 273 272 270 271 271 271 272 274 275 272 272 271 266 267 270 268 265 267 266 264 264 263 263 259 256 256 256 255 255 255 255 254 253 253 253 253 253 253 254 252 252 251 249 249 250 250 251 251 251 251 253 252 252 253 252 252 251 252 255 254 254 252 253 253 253 252 251 251 252 252 253 253 254 254 257
277 276 275 277 278 277 276 276 277 276 275 272 271 271 271 273 272 272 273 273 272 272 274 273 268 266 265 265 264 266 267 266 266 262 258 256 256 255 255 254 253 253 252 251 252 251 253 253 252 252 253 251 252 251 249 249 250 250 251 252 252 252 252 250 252 251 251 251 251 254 254 254 253 252 252 251 251 251 252 251 252 253 252 252 254 253 252
275 274 274 275 275 275 275 276 278 277 275 270 272 272 270 269 272 274 274 274 272 271 272 271 270 267 263 265 264 262 261 260 259 258 256 256 255 255 254 256 258 257 256 256 253 252 251 252 252 253 253 250 251 249 248 249 250 249 250 251 249 253 255 256 256 253 252 252 253 251 251 251 250 251 251 251 250 250 250 249 250 250 251 251 251 252 252
275 269 269 272 274 274 274 274 275 275 275 273 268 270 271 270 270 271 273 273 273 273 272 268 265 267 266 259 257 257 257 257 256 255 255 254 254 254 254 254 253 254 253 254 252 252 252 251 251 252 251 250 250 251 250 249 249 249 250 252 251 251 253 256 254 256 256 254 252 250 250 249 249 248 250 250 249 250 249 249 250 250 250 251 251 252 253
273 273 271 272 269 267 269 272 272 274 274 272 273 274 274 274 274 273 274 274 273 270 269 268 268 265 259 257 256 256 255 255 254 254 254 254 253 253 252 252 251 252 253 253 253 252 252 253 253 253 251 252 251 250 251 252 249 250 249 249 248 252 252 254 255 253 252 251 250 249 248 249 249 248 249 250 250 251 249 250 250 250 251 251 251 251 253
278 278 279 280 279 277 274 274 273 272 273 273 274 273 273 273 272 273 273 272 270 267 268 268 264 258 256 257 256 255 255 256 255 255 255 254 253 252 251 252 250 249 250 251 252 252 252 253 252 253 252 252 251 251 251 251 249 249 248 247 247 247 248 248 251 250 248 249 249 251 250 250 249 248 250 250 250 250 250 250 250 251 251 251 251 251 255
279 280 280 280 279 276 276 276 276 273 273 273 272 271 273 273 271 271 271 270 269 269 263 260 258 257 256 256 255 255 257 260 260 258 256 254 253 252 251 249 249 249 249 249 250 251 252 252 251 250 249 249 251 250 250 248 248 248 246 246 248 247 247 248 247 247 248 248 248 246 247 247 248 251 252 250 249 250 250 250 250 250 250 251 252 252 252
275 276 276 277 277 274 272 274 275 275 274 273 274 273 272 272 270 269 268 266 260 259 259 259 258 257 258 257 257 257 258 257 256 256 255 253 252 251 250 249 249 249 249 250 251 250 250 249 251 252 250 249 249 249 248 246 245 246 245 245 247 248 248 248 248 247 248 247 247 248 247 250 251 250 250 249 248 248 248 248 249 249 250 250 251 251 251
273 275 276 276 275 271 270 273 273 271 272 273 272 270 268 264 266 262 259 256 256 258 257 257 257 258 258 258 257 256 256 254 253 253 252 252 252 251 249 248 249 248 248 249 250 244 241 243 250 252 251 247 247 245 247 251 247 244 245 245 245 246 247 246 246 246 246 247 248 248 249 249 247 247 249 247 248 247 249 249 250 250 250 250 250 250 250
271 272 272 274 270 267 264 257 252 257 260 261 255 253 258 258 255 254 254 254 254 255 256 256 257 257 255 254 255 254 253 252 251 251 250 250 250 249 249 249 249 248 248 250 245 242 242 245 252 249 245 245 245 245 247 252 253 247 244 245 245 246 247 246 247 247 247 245 248 246 247 247 247 246 246 246 247 248 249 249 249 250 249 250 248 248 249
269 263 262 256 251 253 251 252 250 248 252 261 255 251 252 254 253 253 253 253 252 254 255 254 254 255 255 254 252 251 250 249 249 249 249 247 248 250 250 250 251 250 250 246 242 243 246 249 249 245 245 244 244 244 246 251 253 248 245 245 244 246 246 247 247 247 248 248 246 246 245 246 246 247 247 247 247 249 249 250 250 249 249 248 247 247 247
268 264 260 256 257 251 253 252 249 249 249 250 255 253 252 254 254 254 253 253 253 253 254 255 255 255 254 253 251 250 248 248 248 248 247 246 246 246 246 248 248 248 248 250 249 248 249 251 249 246 246 246 244 243 246 249 252 248 245 245 246 246 246 247 246 246 247 245 247 250 248 248 247 248 248 248 247 248 247 248 248 247 247 247 246 246 247
258 253 252 252 251 251 251 253 251 249 249 249 250 251 254 254 253 254 252 252 252 252 252 253 254 252 252 251 251 249 247 246 246 246 245 246 246 245 246 250 248 243 242 244 244 245 248 249 246 244 246 246 243 247 244 250 248 245 244 245 246 246 246 246 247 248 247 248 248 248 248 247 247 248 248 247 248 247 247 247 247 246 245 246 246 246 246
253 251 252 252 251 250 249 250 250 251 250 250 250 251 252 251 253 253 252 250 249 249 249 249 251 251 249 248 247 246 245 244 244 243 245 248 247 245 244 249 247 244 249 249 250 249 247 246 247 250 245 243 244 250 251 249 246 244 244 245 246 247 247 247 248 249 248 248 248 248 247 247 247 247 248 247 246 247 246 246 245 245 244 244 246 246 246
251 251 250 250 249 249 249 250 250 249 249 249 248 248 249 250 251 250 249 249 249 249 249 249 249 249 248 247 247 246 244 243 243 242 242 243 243 246 249 249 244 241 251 249 247 244 243 241 242 242 249 249 247 251 253 251 245 244 244 245 247 248 248 249 249 249 249 248 248 248 247 247 247 247 247 247 247 246 245 245 245 246 245 245 245 245 246
250 249 251 250 250 249 251 250 250 249 249 249 249 248 248 248 249 249 249 248 248 248 247 247 247 247 247 246 247 246 244 243 243 243 243 243 244 244 245 247 247 247 250 248 247 246 245 245 242 247 252 253 254 254 250 249 249 247 247 248 249 249 249 249 249 249 249 249 249 249 249 248 248 247 246 247 247 246 245 245 245 245 245 245 245 245 246
250 250 250 249 249 250 250 251 251 251 249 248 247 247 246 246 246 247 248 248 247 247 247 247 247 247 246 245 246 246 245 245 245 245 245 245 247 250 246 247 247 246 247 251 248 247 245 244 248 252 253 254 254 255 252 251 252 250 249 250 250 249 249 249 249 249 249 249 249 249 249 248 248 247 247 246 248 247 247 247 246 246 246 246 246 246 246
249 248 249 250 249 248 249 251 250 250 249 248 247 246 244 244 244 244 244 246 246 245 245 248 247 246 244 244 243 242 242 241 241 243 244 245 247 247 245 247 245 248 251 252 248 247 246 251 253 254 255 255 255 253 249 252 252 253 252 251 251 250 250 250 250 250 250 250 249 249 248 248 246 247 247 246 246 246 247 248 248 247 247 247 246 246 246
249 248 248 247 247 247 249 250 251 250 250 250 250 247 245 243 243 243 242 242 242 242 242 243 243 242 243 244 244 244 245 245 246 244 244 244 246 248 250 252 252 253 253 249 249 248 248 249 253 255 255 255 255 250 249 249 251 251 251 251 251 250 250 250 250 250 249 249 249 248 249 248 247 247 247 247 247 247 247 247 246 247 247 247 247 247 248
247 246 246 246 247 248 249 249 250 250 249 251 249 248 244 242 242 241 241 242 242 240 241 240 241 241 241 241 242 243 244 247 248 249 244 244 244 244 245 243 247 251 253 254 253 254 255 255 255 255 255 255 253 250 250 251 251 251 251 251 250 250 250 250 250 249 249 248 248 247 246 247 247 247 247 247 247 246 246 246 246 247 247 246 246 246 246
246 245 245 246 247 248 249 250 249 249 247 247 247 245 243 243 242 243 242 242 242 243 243 242 241 240 241 243 242 243 245 247 248 249 247 243 243 243 243 248 252 253 252 250 248 248 252 254 255 255 255 255 251 251 251 252 252 252 252 251 251 251 251 250 250 248 248 247 247 247 247 248 248 248 247 247 247 247 247 247 247 246 246 246 246 246 247
245 246 247 247 248 248 249 250 249 248 247 247 248 246 245 247 249 247 246 244 245 247 244 244 243 242 241 242 244 245 245 245 246 246 246 245 243 243 247 247 249 252 253 250 248 249 252 254 254 254 253 251 252 252 252 252 252 252 252 252 251 251 251 250 251 250 249 248 248 248 248 248 248 248 248 247 247 247 247 247 247 247 248 248 248 247 247
246 247 247 247 246 246 245 247 248 248 248 248 247 247 249 249 250 250 248 247 248 250 250 249 248 245 243 242 242 244 245 244 245 248 247 246 246 250 251 251 251 253 254 253 251 251 249 250 250 252 252 252 253 252 253 253 253 252 252 252 251 251 251 250 250 249 249 249 249 249 249 248 248 248 247 247 247 247 247 247 247 247 246 246 246 246 246
245 244 245 245 244 244 244 244 245 247 247 248 248 249 249 250 250 250 249 252 250 249 249 249 251 250 247 247 247 245 244 245 246 246 250 250 251 250 251 254 253 252 251 251 251 249 251 251 253 253 253 252 252 251 252 252 252 252 252 252 251 251 251 250 250 250 249 250 249 249 249 248 248 247 247 247 247 247 247 247 247 247 247 246 246 246 246
Wind_Speed
6 2 2 2 3 4 4 9 11 12 13 10 15 17 7 8 12 17 7 9 6 8 8 10 11 12 14 13 14 12 5 2 3 3 4 5 6 3 5 8 8 9 8 8 8 7 7 5 6 6 4 3 3 3 3 3 3 3 3 6 5 5 5 5 4 3 4 4 3 3 4 4 4 5 5 5 5 4 4 4 5 5 6 7 6 7 6
8 5 3 1 6 3 1 6 12 14 14 18 19 14 13 15 11 4 2 7 10 10 4 9 12 9 5 4 0 1 2 5 5 5 6 7 6 6 7 8 10 8 8 7 8 7 6 7 7 6 5 5 5 6 4 3 4 3 5 5 5 5 5 4 3 3 4 3 3 3 4 4 4 4 4 4 4 4 5 4 4 5 6 5 5 7 7
9 4 1 2 4 4 6 8 9 11 4 5 9 8 2 5 4 7 5 4 12 4 6 5 1 2 1 0 4 7 5 3 4 4 5 5 5 6 7 7 7 7 7 7 6 7 8 8 8 8 6 6 5 4 4 4 4 3 4 5 4 5 5 3 3 3 3 3 3 3 4 4 3 3 5 4 3 4 4 4 6 6 6 6 6 6 7
5 3 6 3 2 1 4 10 17 9 8 11 9 7 7 7 9 7 6 10 12 6 5 2 2 3 5 9 10 5 4 6 6 6 7 7 8 8 8 8 6 7 8 8 8 9 8 7 7 7 7 7 6 6 5 5 4 3 4 4 5 5 4 3 3 4 3 4 4 4 3 3 3 3 3 3 3 4 4 4 4 3 5 5 6 6 6
8 1 3 5 4 1 6 16 22 14 11 9 2 2 5 11 7 7 9 13 10 2 4 4 5 7 8 8 5 5 6 5 6 9 9 8 8 9 9 8 8 9 10 10 10 7 5 7 8 7 8 9 8 7 7 5 5 4 4 5 5 5 3 3 3 4 4 3 2 2 2 2 3 3 3 4 4 4 5 4 4 4 6 7 6 6 7
1 1 4 4 5 9 16 2 3 14 16 16 11 7 10 9 9 7 9 8 1 5 5 7 10 10 8 8 9 7 7 6 7 8 7 7 8 7 7 8 9 9 6 5 6 6 6 5 5 6 6 7 7 6 6 5 5 4 5 4 5 4 3 3 3 3 3 2 2 2 2 2 3 3 3 4 4 4 4 4 4 5 4 6 5 7 7
4 2 5 4 11 17 2 3 6 3 4 6 13 14 11 5 8 7 8 7 4 7 9 11 8 2 3 4 5 4 7 6 7 9 10 10 8 9 8 7 7 7 7 5 4 4 5 6 6 8 6 7 8 6 6 6 4 6 4 5 4 4 3 3 3 3 4 2 3 2 2 3 3 3 3 4 4 4 4 5 6 6 6 6 6 6 7
4 4 7 7 9 2 3 5 5 3 8 3 2 5 7 7 9 12 11 10 8 10 12 4 1 1 2 2 5 6 5 7 8 7 9 10 9 8 9 11 10 8 8 10 11 9 5 7 6 6 8 7 8 6 5 6 5 4 5 4 4 2 3 3 3 3 2 2 2 2 3 3 3 4 3 4 5 5 4 4 3 4 4 4 7 8 7
5 4 9 10 4 6 3 2 2 6 5 6 6 7 7 9 11 10 7 8 12 12 6 0 1 1 1 4 7 4 8 8 7 9 9 9 11 11 9 9 10 9 8 7 6 6 7 7 8 7 7 7 7 7 6 4 4 4 4 3 3 3 3 3 2 2 1 1 1 2 3 4 3 4 4 5 4 3 5 5 5 5 5 5 6 7 8
7 5 3 2 3 10 6 2 1 1 3 5 3 4 6 6 2 7 9 11 16 8 1 3 2 1 2 6 9 4 6 6 7 5 4 3 5 5 5 3 2 3 4 4 4 8 9 7 6 6 7 7 8 7 5 5 4 5 4 4 3 3 3 2 1 1 1 0 1 2 3 3 4 3 3 3 3 3 5 7 7 5 6 7 6 6 8
4 3 6 5 6 6 2 4 4 1 1 7 4 1 7 5 6 10 12 11 8 5 6 4 4 3 2 8 9 6 5 4 6 7 7 6 5 5 6 8 8 7 7 7 7 6 7 9 7 7 7 8 8 6 5 5 4 4 4 4 4 3 3 2 1 0 0 0 1 2 3 3 3 4 4 4 4 3 4 4 6 6 6 7 7 6 6
4 4 4 7 3 5 2 3 1 3 3 5 5 3 8 3 8 6 7 9 8 6 5 8 7 8 7 7 9 4 8 8 8 9 8 7 7 7 4 3 4 5 7 9 6 8 10 11 8 9 7 7 6 6 6 5 4 4 5 5 4 4 2 1 0 0 0 1 1 2 3 3 3 4 4 3 4 4 5 4 6 6 6 7 9 8 7
8 9 5 3 6 4 2 6 4 3 2 5 5 11 7 3 5 5 7 7 8 7 8 8 7 10 9 8 3 2 2 2 3 4 5 6 5 7 6 6 7 8 9 11 14 15 11 9 9 7 7 7 6 5 6 5 5 4 4 5 4 3 2 1 0 0 1 1 3 3 3 4 3 3 3 4 4 4 6 5 5 7 7 8 8 9 7
8 5 6 8 6 5 6 2 9 6 4 3 9 6 3 9 7 5 9 9 6 7 11 9 9 9 10 2 1 2 4 6 4 5 4 3 2 1 2 6 6 6 7 6 4 4 5 9 8 7 7 7 5 5 5 5 4 4 5 5 4 2 1 0 0 1 2 3 3 3 3 3 3 4 3 3 4 5 5 5 7 8 7 7 8 9 7
4 1 6 4 10 3 11 9 3 2 4 7 5 2 0 4 7 10 8 7 6 9 8 10 10 8 2 3 5 4 3 2 5 3 4 7 8 7 5 4 6 8 8 9 9 8 6 7 8 7 8 7 6 5 6 5 4 5 5 4 3 2 1 1 1 2 3 3 4 3 3 3 4 5 4 4 4 4 5 6 6 8 7 7 8 9 9
6 8 8 9 6 4 11 13 8 6 9 5 5 7 5 3 5 8 8 7 8 10 10 10 8 6 5 5 4 4 4 5 5 3 3 3 2 2 5 4 7 8 8 6 6 6 7 7 7 7 9 9 7 7 8 4 5 4 4 3 3 1 1 1 2 3 3 4 4 3 4 4 4 4 5 4 4 5 5 5 6 7 6 6 7 8 10
9 9 8 2 2 9 10 7 5 8 9 5 8 6 8 8 6 5 6 9 8 10 9 6 7 5 6 7 6 4 6 5 5 6 8 8 8 9 9 7 5 6 10 9 8 6 6 7 6 7 6 10 8 8 4 6 5 6 5 4 3 2 3 3 3 4 3 4 4 4 4 4 4 4 4 3 5 4 4 5 5 7 7 5 7 8 8
3 2 4 0 1 2 8 6 4 5 5 2 4 6 4 5 6 10 9 8 8 8 7 7 4 6 6 5 6 5 6 7 7 5 4 5 6 5 3 3 7 8 4 5 8 9 6 6 7 6 6 8 10 6 5 6 6 6 5 4 4 4 4 3 4 3 4 4 4 4 4 4 4 4 4 4 5 6 5 6 5 6 7 6 6 7 8
1 7 1 7 7 3 6 12 9 3 2 5 5 4 5 5 6 8 7 6 9 10 9 9 8 8 7 6 8 6 5 6 7 7 8 8 8 8 9 8 7 7 7 8 10 11 12 10 9 7 7 4 5 6 8 7 6 5 5 5 4 4 4 4 3 3 4 4 4 4 3 4 4 4 4 4 4 6 6 6 6 6 6 6 7 7 7
5 6 4 3 3 3 6 8 8 8 11 7 5 7 6 5 3 5 6 2 2 5 7 10 7 8 7 6 7 6 7 8 7 7 8 9 6 7 6 5 8 7 9 12 12 12 13 12 9 8 7 7 7 7 6 7 6 6 6 7 6 5 6 4 4 4 4 5 5 4 4 4 5 5 4 4 5 6 7 6 6 6 6 7 7 7 7
3 0 0 0 2 2 5 7 9 9 7 5 5 7 6 4 4 4 3 5 6 7 8 6 7 6 8 7 8 7 8 7 6 8 9 9 9 6 6 7 10 13 12 13 13 14 12 8 9 8 8 7 7 8 8 7 8 7 8 7 5 4 4 3 5 3 4 4 4 4 5 4 5 5 5 5 6 8 8 7 8 8 8 8 10 11 9
3 6 6 6 2 4 7 10 13 12 12 6 5 3 3 4 6 6 6 7 5 5 5 6 7 8 9 7 6 8 10 10 9 7 7 7 6 7 7 7 9 9 9 12 11 11 6 8 9 8 7 7 6 7 6 7 8 8 7 5 5 5 4 4 4 3 4 4 3 4 4 5 5 5 8 12 9 7 7 12 17 18 15 9 9 8 6
4 6 8 9 10 8 7 8 9 10 6 5 7 8 9 8 8 8 7 7 6 6 8 6 8 9 9 9 6 8 8 10 9 9 7 6 6 8 6 7 7 10 10 9 7 8 9 9 10 9 8 7 6 6 7 6 8 9 8 6 5 5 4 5 5 4 4 4 4 4 4 4 4 5 6 7 11 14 14 14 14 16 16 18 19 17 9
2 7 6 8 7 9 8 6 5 6 7 9 10 10 9 10 8 6 8 9 10 9 7 7 10 11 10 9 6 10 10 8 7 7 7 7 7 6 7 10 10 10 8 10 13 14 9 9 9 8 7 6 7 6 6 6 7 8 7 7 6 5 5 4 4 4 3 3 3 4 4 4 4 4 5 7 9 8 8 10 12 15 15 16 14 10 12
7 3 5 8 9 9 8 6 5 7 6 8 8 11 12 10 8 7 9 10 8 9 9 9 8 9 10 10 8 10 10 9 8 8 6 5 5 7 9 7 9 12 12 9 4 4 7 7 7 7 7 6 6 5 6 6 7 9 8 6 6 5 5 4 4 4 4 3 4 4 4 4 4 3 4 4 7 10 9 9 10 11 12 8 9 12 15
5 4 5 3 2 7 6 1 5 7 4 6 6 5 6 8 8 6 9 11 10 9 9 10 8 7 10 11 9 8 7 9 7 4 4 6 5 4 7 12 11 6 6 7 7 8 7 8 8 7 7 6 6 6 6 6 7 8 7 7 6 6 5 5 5 4 4 4 4 4 4 4 4 4 4 4 5 5 8 11 9 4 3 8 13 16 15
5 7 4 1 5 11 6 9 13 10 7 9 10 11 10 7 9 7 5 5 7 7 8 10 8 6 5 7 7 6 8 5 2 5 6 6 9 10 7 3 5 7 8 8 7 8 9 8 6 6 6 5 5 5 5 6 6 6 6 6 5 5 7 5 4 5 4 4 5 4 4 4 4 4 4 4 4 5 5 6 7 10 10 6 7 11 12
10 9 11 11 12 13 12 11 12 14 6 10 9 11 9 4 3 5 7 8 7 8 8 7 6 5 7 7 6 5 2 5 9 6 6 9 4 3 4 5 6 7 7 7 6 6 6 6 6 5 6 4 4 5 5 6 6 6 6 6 5 4 4 5 4 4 4 4 4 5 4 5 4 4 5 4 5 5 5 5 6 8 9 7 4 8 14
9 9 10 13 14 14 10 1 4 8 10 6 7 6 3 4 7 7 10 11 11 6 7 7 6 8 8 6 6 8 8 6 6 9 8 4 4 4 5 7 6 5 6 6 5 5 5 5 5 6 7 3 4 4 4 6 5 6 6 5 5 5 4 4 4 4 4 4 4 5 6 5 5 4 4 4 5 5 6 6 6 6 7 9 9 6 4
10 6 7 10 11 8 7 8 11 10 9 5 7 8 8 9 8 9 11 11 8 9 12 9 5 7 7 6 7 9 11 12 10 4 4 5 5 6 7 8 8 6 4 4 5 5 6 6 5 7 7 3 5 5 5 5 6 6 6 7 6 6 5 3 3 4 4 5 5 7 6 5 3 3 4 4 4 5 6 5 5 6 7 7 6 8 8
4 6 9 10 10 9 10 15 15 12 7 5 8 7 6 6 9 11 11 11 8 8 10 9 9 6 5 9 7 4 1 3 4 5 5 6 7 7 8 9 11 9 9 9 7 7 6 6 6 7 4 4 4 5 6 5 5 5 4 5 4 6 8 8 7 5 5 5 6 5 5 4 3 4 6 5 4 5 5 5 5 5 6 6 7 7 7
4 6 8 8 10 11 12 11 11 10 10 7 5 7 11 11 11 14 14 11 12 13 11 7 6 10 10 4 4 5 4 5 5 6 6 6 6 5 5 4 2 4 3 4 4 6 6 5 8 7 3 3 4 4 5 4 4 5 6 4 4 4 5 8 6 6 4 5 4 4 6 3 5 4 5 6 5 5 4 4 5 5 5 6 7 7 7
6 7 6 10 9 6 9 10 10 13 12 9 11 13 11 10 11 11 13 12 9 8 8 9 9 6 4 6 5 5 5 5 5 6 6 6 6 4 3 2 2 4 3 2 4 5 6 7 6 2 3 4 4 4 5 5 5 6 5 5 4 4 4 5 6 6 5 6 6 5 4 5 6 5 6 6 5 6 5 5 5 5 6 6 7 7 6
13 14 16 16 13 13 14 16 11 10 10 9 9 9 9 8 10 11 11 10 8 7 9 9 4 5 6 6 6 6 8 8 5 7 8 7 7 5 3 3 2 2 1 1 1 1 2 3 4 4 3 4 4 4 5 5 5 5 5 5 5 4 4 4 5 4 4 7 7 6 5 6 5 5 6 6 4 5 6 4 6 6 6 6 6 6 9
13 15 14 13 12 8 8 10 10 10 11 11 10 9 11 10 8 11 11 8 9 8 2 4 6 7 7 7 7 8 9 8 5 6 7 6 7 6 5 4 3 1 1 2 3 4 5 6 5 5 4 4 4 4 4 5 5 5 4 5 5 4 5 5 4 5 6 6 4 4 5 5 6 5 6 5 5 6 5 6 5 5 5 6 6 5 5
8 9 10 11 11 8 7 9 9 9 9 11 12 11 10 11 9 8 9 7 1 3 5 6 8 8 8 9 9 8 7 4 6 7 7 7 6 6 6 5 4 1 1 6 4 5 5 5 6 6 4 4 4 4 4 4 4 5 4 4 4 5 5 4 5 4 5 5 5 6 4 6 6 7 6 5 4 4 5 5 5 5 6 6 6 6 6
6 9 10 9 9 7 7 9 7 6 7 8 7 6 6 5 7 4 1 3 4 5 7 8 8 8 9 6 5 5 5 6 7 7 6 6 6 6 6 5 3 3 1 2 3 0 2 3 5 7 5 3 4 4 4 6 5 5 4 4 4 4 4 5 4 4 6 4 5 6 7 6 5 4 6 4 5 4 5 5 6 5 5 5 5 5 7
7 8 10 9 6 4 3 1 1 0 1 2 2 1 1 2 3 4 4 4 4 5 5 6 7 6 7 8 8 8 7 6 6 8 7 7 6 7 4 5 5 4 4 5 2 1 1 1 1 2 2 3 4 4 4 7 7 5 4 4 5 4 5 4 5 6 6 5 7 5 5 6 6 6 5 5 5 5 6 6 6 5 5 5 5 4 6
7 2 1 1 0 2 4 2 3 3 0 6 4 1 1 4 5 6 6 4 4 5 7 7 8 10 11 11 10 8 7 6 6 8 8 7 4 6 6 6 5 5 4 1 1 1 0 0 0 0 1 2 3 2 3 4 5 5 5 4 4 5 4 5 5 6 6 6 4 5 5 6 5 5 6 6 6 6 6 6 6 6 5 5 5 5 5
6 1 1 0 1 1 2 2 3 3 3 1 3 5 4 6 6 7 7 6 3 3 6 9 10 10 9 9 9 7 5 6 6 7 7 6 4 2 2 5 6 6 5 6 4 4 4 6 4 4 4 4 3 3 4 5 5 5 5 5 5 5 5 5 4 5 5 4 6 6 6 7 5 6 6 6 5 6 6 6 6 6 5 5 5 5 6
3 1 1 2 2 2 2 4 3 3 3 4 3 3 3 4 6 7 7 7 5 4 4 5 7 7 6 7 7 7 6 4 4 6 6 6 4 3 1 4 2 1 1 2 2 3 4 3 3 4 5 4 3 4 3 5 3 4 4 4 5 4 4 4 4 5 6 6 7 6 6 6 5 6 6 5 6 5 6 5 6 5 4 5 6 5 5
1 2 2 3 3 3 3 3 5 5 5 5 4 4 4 3 5 8 7 7 7 6 6 5 5 8 8 8 8 7 6 4 4 4 4 5 5 5 2 4 1 2 2 3 2 2 2 1 2 4 4 3 3 5 6 5 4 4 4 4 4 4 4 4 5 6 6 6 5 6 6 6 6 6 6 6 5 6 6 5 5 5 6 6 6 6 6
0 2 2 3 3 3 4 4 5 7 5 4 4 4 4 6 8 9 8 7 7 7 7 7 8 9 8 8 8 7 5 3 3 3 2 4 5 4 4 2 0 1 2 1 1 1 2 2 3 3 4 4 5 6 6 4 4 4 4 3 5 4 4 5 5 5 5 5 5 6 5 6 6 6 6 6 6 6 5 5 6 6 5 5 5 6 6
1 1 4 4 5 3 4 5 6 6 7 5 4 4 5 5 5 8 9 8 7 6 8 7 6 7 7 6 7 6 5 4 4 4 2 2 3 5 7 6 4 3 5 4 1 2 3 3 3 5 5 7 7 6 5 3 4 4 3 4 4 4 4 4 5 5 5 6 6 6 6 7 6 6 5 6 6 6 5 6 5 6 6 6 6 6 6
1 1 1 2 4 4 4 5 6 7 6 6 6 6 6 6 5 4 6 7 7 5 4 6 6 5 5 4 5 3 4 5 6 6 5 1 3 1 0 4 5 3 5 4 2 1 2 2 4 5 5 6 7 6 3 4 4 4 4 5 4 4 5 5 6 5 6 6 6 6 6 6 6 6 6 6 6 6 6 6 6 5 5 6 6 6 6
3 3 4 5 4 4 3 5 6 8 8 9 9 6 5 4 5 5 4 6 6 4 3 4 4 4 4 3 2 2 1 0 2 4 2 2 3 1 2 4 5 5 4 3 1 1 2 5 6 6 6 7 7 5 3 4 4 4 4 5 5 5 5 5 5 6 6 6 6 6 6 6 5 6 6 6 6 6 6 7 7 6 6 6 6 6 7
2 3 4 6 4 4 6 6 6 8 8 8 8 6 2 3 4 4 4 4 4 4 2 2 2 3 4 5 6 4 1 1 2 3 4 4 3 2 4 4 4 5 3 2 2 2 3 4 5 7 7 7 6 4 4 4 4 4 4 5 5 5 5 5 6 6 6 6 6 7 6 6 6 6 6 5 6 6 6 5 6 7 6 7 6 7 7
2 3 3 4 6 6 6 6 7 6 5 6 6 6 4 3 4 3 3 4 5 4 2 1 1 1 2 3 2 1 2 4 3 1 2 4 4 3 3 3 3 2 3 3 3 3 5 6 7 7 7 6 5 3 4 4 4 4 5 5 5 5 5 5 5 5 5 5 5 5 5 5 6 6 5 6 6 6 5 6 6 7 6 6 7 7 6
3 4 4 5 4 6 6 5 6 6 5 4 5 4 3 5 4 4 4 4 5 3 1 1 1 3 2 4 3 4 3 2 1 1 2 4 4 3 2 2 3 3 3 1 2 3 4 5 6 6 7 6 4 4 4 4 4 5 5 5 5 5 5 6 6 5 5 6 5 5 6 6 6 5 6 6 6 5 6 6 7 7 7 6 6 7 6
3 3 4 4 3 3 3 4 4 5 5 5 5 4 4 4 6 2 2 3 3 3 2 1 1 1 3 3 3 3 3 3 4 2 2 2 1 1 1 1 2 4 4 3 2 3 4 5 5 5 5 2 3 4 4 4 5 5 5 5 5 5 5 6 5 6 6 6 5 6 6 6 6 6 6 5 5 6 6 6 7 7 9 8 8 7 6
2 4 3 4 3 3 5 4 2 3 3 3 4 3 2 2 4 3 2 2 3 4 2 1 0 0 1 3 3 3 3 3 4 4 3 2 1 2 3 3 3 4 4 3 2 3 3 2 2 4 3 3 3 3 4 4 5 5 5 5 5 5 5 5 5 5 5 6 5 6 6 6 6 6 5 5 6 6 7 7 7 6 6 6 7 7 7
4 4 5 3 4 4 4 4 4 4 3 3 3 2 3 4 4 3 1 2 3 2 3 3 1 0 0 1 1 3 3 4 4 2 3 2 2 2 4 4 3 3 3 3 4 3 3 3 3 3 3 3 3 4 5 6 6 5 5 5 5 5 5 5 5 5 5 6 6 6 6 6 5 6 6 5 6 6 7 6 7 6 6 6 6 6 7
Wind_Direction
257 82 337 151 187 222 203 204 209 215 209 188 201 219 207 168 209 241 219 160 204 237 216 192 201 191 200 203 207 209 199 144 161 169 185 210 224 209 201 208 201 200 196 194 199 202 197 175 179 178 162 146 120 101 107 112 107 100 112 104 97 95 88 88 82 70 65 57 49 44 43 32 26 11 2 359 351 346 351 352 348 342 346 339 336 341 342
266 259 221 179 208 214 188 232 228 226 205 205 209 213 207 206 228 267 90 174 216 230 202 175 212 215 202 227 246 78 207 208 174 188 212 224 227 204 203 210 208 202 197 194 200 196 187 185 184 177 168 161 157 144 138 127 112 97 95 98 107 99 97 100 92 85 82 66 53 50 41 29 18 0 355 355 348 350 356 347 341 345 340 339 348 340 337
250 228 101 235 202 184 229 245 246 235 211 226 228 227 207 56 324 279 242 233 260 250 152 194 314 77 137 348 230 220 213 200 211 225 243 259 265 249 234 224 210 197 197 202 197 195 195 191 187 178 172 159 146 137 139 133 122 109 104 112 105 113 114 108 100 93 86 68 59 49 35 24 6 3 357 352 352 351 350 347 346 347 338 342 346 335 333
248 203 177 166 76 31 234 249 244 208 157 215 205 196 192 185 212 217 235 247 252 239 130 184 184 184 199 216 227 209 199 212 212 222 235 231 232 232 228 219 196 193 200 201 202 204 199 191 182 170 159 158 151 152 146 139 129 120 118 119 118 113 111 103 95 83 73 58 45 33 24 11 2 356 348 346 350 348 342 345 342 334 334 339 332 332 325
233 297 140 153 104 5 298 243 237 219 210 218 77 176 198 212 191 202 223 242 241 216 138 151 229 215 225 236 234 246 239 220 208 221 227 225 225 222 220 204 200 202 202 204 203 200 191 182 180 184 160 153 163 154 146 141 122 120 119 120 117 109 106 102 91 81 67 57 45 33 21 2 350 344 348 343 348 347 347 338 327 338 336 333 329 327 320
151 40 133 119 148 215 236 308 163 195 215 217 204 207 210 213 173 205 213 245 111 120 164 196 231 216 218 213 230 208 205 208 221 234 231 227 221 222 216 205 203 208 205 204 200 193 184 175 166 151 154 148 141 135 129 125 127 129 123 118 116 121 119 114 100 86 69 55 37 16 7 357 355 351 353 350 340 332 330 332 335 329 329 325 320 317 316
182 104 119 174 215 231 25 318 350 354 250 212 216 226 237 214 220 244 267 263 221 215 211 218 233 218 219 231 221 221 215 200 204 205 216 217 212 210 203 206 214 209 201 187 167 164 162 151 142 136 128 131 129 124 130 126 131 128 127 128 128 140 133 107 89 71 52 38 18 359 353 357 356 350 345 334 338 336 336 330 329 326 325 321 315 312 310
50 124 182 218 234 21 302 1 351 22 79 63 97 308 273 231 217 217 226 242 237 239 241 242 94 182 224 255 246 229 226 204 198 195 209 213 201 202 205 201 208 193 189 186 186 181 146 143 148 151 146 141 132 134 130 132 136 135 135 128 134 134 110 88 72 59 48 28 359 347 344 350 352 340 337 331 331 326 322 313 298 302 300 300 306 308 306
173 206 197 236 6 318 218 10 265 167 150 178 158 227 258 222 212 201 205 224 248 241 252 119 80 64 43 331 283 220 211 210 209 200 210 195 201 204 210 198 203 198 190 182 169 141 153 157 155 155 144 137 131 131 131 139 135 142 133 137 149 130 112 99 80 74 43 24 339 339 344 343 336 329 328 324 322 317 314 308 310 308 302 303 302 302 302
142 157 209 309 275 250 236 198 232 66 161 134 172 142 281 280 226 183 177 211 232 242 173 108 123 76 41 305 279 229 216 201 201 231 238 235 215 213 204 191 196 161 154 127 140 156 155 157 155 143 144 142 138 138 148 150 145 150 147 164 151 132 123 114 104 95 41 19 333 332 331 321 314 307 307 299 300 311 309 311 309 303 305 301 294 293 295
78 182 211 213 204 254 156 198 172 199 148 127 104 79 276 259 188 199 178 208 231 213 168 169 129 100 196 250 255 253 217 205 197 199 223 214 217 208 194 183 182 177 172 161 149 139 148 162 166 154 149 145 143 154 159 162 159 162 177 166 158 145 137 121 126 115 88 4 324 312 304 299 302 303 305 300 298 297 286 290 292 300 300 298 295 290 283
207 147 223 226 228 228 286 180 221 204 154 124 76 332 275 260 197 186 164 198 212 198 176 147 153 157 200 243 255 213 196 201 193 189 206 214 222 228 204 219 188 152 132 122 141 159 181 187 157 158 153 150 154 158 167 156 166 188 187 166 147 125 127 125 124 119 22 324 304 298 293 298 296 286 289 299 297 302 297 289 294 298 295 292 293 292 289
227 229 259 355 287 261 174 171 152 159 150 82 102 230 233 233 190 190 180 197 204 168 151 163 167 224 200 207 214 107 156 114 211 225 222 215 204 209 200 194 148 152 170 172 180 190 187 158 156 158 152 147 164 164 159 163 198 193 157 137 129 131 121 121 170 193 306 293 288 285 274 278 283 288 286 291 301 298 298 298 292 294 293 290 289 289 288
238 246 256 242 271 237 153 267 150 173 93 213 212 236 198 151 195 196 192 198 198 163 174 186 204 219 227 235 38 156 171 197 210 205 187 143 110 86 134 151 159 163 173 186 166 140 145 153 157 156 154 157 161 160 161 199 198 144 140 134 126 122 133 170 206 298 289 287 270 265 278 283 287 282 272 278 286 291 289 294 295 291 292 292 291 291 289
56 115 245 279 260 263 124 134 55 290 153 239 191 155 272 187 174 173 207 203 201 170 202 209 210 229 268 229 240 248 226 239 260 233 173 179 187 178 150 164 194 168 172 190 193 171 147 154 157 162 152 158 164 164 188 208 154 143 134 132 127 136 149 221 263 280 282 275 279 279 281 274 276 283 287 295 290 289 290 291 288 291 291 293 296 296 296
170 194 206 213 229 127 163 142 177 214 210 188 154 131 189 209 166 183 184 215 199 192 192 203 227 238 252 287 258 258 262 242 254 251 229 228 212 209 226 210 183 179 189 178 165 153 159 162 165 165 162 161 170 178 208 150 143 132 130 124 125 133 196 249 272 279 269 273 271 272 272 276 277 281 291 289 285 280 279 283 289 292 290 292 296 298 303
157 199 213 217 178 165 195 177 186 204 209 152 181 154 170 175 227 192 183 204 200 197 194 197 192 216 225 227 236 213 242 240 233 231 224 212 212 209 204 207 179 185 193 182 164 159 171 172 172 170 172 163 170 193 190 147 151 148 142 131 141 194 226 243 253 252 269 266 270 268 265 259 272 280 287 282 290 275 276 282 278 284 287 287 289 294 296
268 272 180 139 13 201 202 241 218 209 228 184 152 175 159 223 189 170 188 209 190 193 189 175 218 207 225 221 245 232 238 238 243 234 240 242 233 223 191 173 174 186 160 147 162 175 184 186 179 179 180 166 173 198 152 153 146 148 145 149 173 214 227 232 240 251 271 279 270 264 265 258 251 256 263 274 273 283 276 272 266 270 281 284 282 282 284
106 263 97 154 196 199 200 214 234 248 257 217 198 212 223 210 180 200 217 193 187 184 174 186 197 218 218 224 241 242 244 241 238 228 223 234 222 210 209 207 149 158 166 170 185 186 193 195 186 182 173 175 160 141 155 149 146 145 153 169 190 210 227 231 242 238 243 268 279 276 265 258 255 257 254 253 258 270 268 270 269 263 271 276 279 271 264
185 244 216 235 333 247 222 214 221 243 244 236 211 220 227 226 190 196 205 154 153 149 176 198 193 224 219 205 235 239 236 237 236 228 227 233 240 230 211 170 171 169 181 193 196 193 202 193 181 171 171 171 155 147 149 150 148 152 170 181 194 210 219 215 231 229 239 253 257 268 268 263 273 277 258 239 247 256 260 257 260 267 264 268 266 266 271
252 257 279 267 340 324 262 245 240 240 242 235 228 225 234 234 203 217 210 207 190 177 202 182 196 222 244 217 219 228 240 242 236 229 226 223 224 211 183 191 176 189 194 199 202 198 204 170 171 173 177 168 162 158 153 155 155 167 174 179 196 210 217 214 238 234 232 241 245 255 269 262 250 242 261 265 261 261 250 233 234 247 261 256 263 271 256
216 182 213 153 151 249 241 230 232 234 236 217 232 237 241 228 218 215 210 238 225 213 211 179 186 211 240 233 207 225 233 234 235 232 230 225 214 211 204 176 193 200 201 200 199 198 182 162 176 177 177 172 169 167 160 160 160 170 178 185 193 218 212 216 236 235 242 245 242 248 253 268 276 279 255 262 260 252 256 266 263 254 245 238 248 267 281
232 239 218 194 211 236 231 215 224 228 229 185 217 233 231 232 224 211 198 226 248 241 241 206 197 220 226 239 206 221 236 239 231 228 224 216 212 208 177 169 195 203 204 196 185 185 181 169 179 179 175 173 170 172 162 164 164 172 164 183 201 215 212 226 225 230 232 247 251 251 254 259 269 282 301 294 290 284 279 279 281 282 285 286 291 293 296
212 217 196 193 195 221 245 228 195 214 206 191 214 231 230 231 227 204 204 216 222 240 235 215 207 213 225 233 198 219 236 241 240 238 228 217 211 188 178 191 196 195 194 190 194 195 174 170 172 171 171 176 176 174 171 169 169 174 181 184 201 211 210 223 231 236 239 244 255 257 262 259 264 280 291 308 308 301 298 298 299 298 296 295 293 300 310
235 189 171 193 206 231 242 238 204 212 203 178 200 226 228 227 228 196 206 227 226 227 241 238 217 208 218 234 212 216 224 234 224 227 221 207 189 177 191 192 197 198 200 191 165 144 154 162 162 170 177 189 177 173 172 171 170 168 179 191 199 211 210 217 222 232 242 241 247 243 254 259 263 264 282 296 307 316 316 313 309 305 308 315 321 313 314
212 161 195 185 219 239 245 319 288 243 209 195 215 241 242 220 223 193 212 219 229 222 225 240 239 221 206 224 220 221 229 237 222 175 166 187 180 168 189 204 202 173 155 149 149 151 160 171 174 176 191 190 179 178 170 173 177 188 190 196 200 201 205 206 212 228 230 237 239 244 241 245 247 258 262 266 279 285 308 323 328 308 276 313 315 314 313
216 200 142 262 282 264 214 204 247 251 189 198 198 223 230 224 219 222 238 235 236 229 225 233 233 228 211 222 222 216 213 227 143 190 200 194 196 207 199 156 152 155 150 149 155 163 162 165 172 188 207 197 173 173 171 171 175 185 194 199 204 218 215 211 210 226 232 236 235 242 241 247 249 255 261 267 265 274 289 295 298 305 309 307 302 304 309
211 196 176 198 231 246 249 228 226 253 213 185 203 219 234 223 232 248 258 259 258 245 237 234 226 208 213 224 193 221 181 176 208 206 198 215 196 116 128 136 135 141 146 149 153 154 156 164 177 200 227 196 168 178 170 166 174 189 196 204 206 211 216 221 223 228 235 232 235 236 241 249 244 246 249 247 260 267 273 271 280 291 292 294 289 305 303
221 203 204 212 227 237 255 177 200 233 241 201 201 206 175 191 226 225 238 238 242 250 257 246 212 218 218 215 183 208 206 208 211 211 208 164 123 124 120 122 121 123 134 141 142 154 155 165 186 214 238 187 178 183 171 169 182 192 201 205 207 215 219 219 215 227 235 233 234 237 249 244 238 242 243 252 260 262 261 267 274 269 276 299 314 306 295
224 204 202 229 239 253 264 263 248 240 236 175 172 207 201 197 219 234 232 243 239 237 241 244 216 223 211 210 204 199 204 211 211 177 134 141 138 132 133 123 107 85 95 134 170 168 173 185 195 219 232 184 191 183 172 176 194 197 205 206 208 212 221 220 223 228 232 238 238 244 244 243 241 244 257 257 255 250 257 263 263 277 292 297 299 303 310
204 175 200 221 233 240 234 243 248 247 240 199 193 204 214 201 221 237 242 241 239 238 248 236 230 226 196 216 211 194 155 124 132 141 138 141 147 151 152 156 155 179 189 195 180 176 184 196 209 228 218 177 194 173 168 184 194 199 212 216 220 230 230 233 234 220 219 234 240 236 240 240 243 245 255 254 252 255 256 257 266 276 275 281 287 292 293
240 182 209 227 227 231 238 246 253 253 243 223 185 210 213 200 213 229 238 242 233 227 236 234 224 225 219 172 134 138 132 126 121 126 134 140 151 159 168 170 87 85 120 127 155 175 186 190 220 231 175 179 188 180 176 188 190 195 214 214 215 226 238 240 242 254 256 254 246 245 243 244 251 239 249 250 253 255 259 259 267 267 268 278 282 280 291
236 256 264 251 250 249 251 247 232 243 241 224 215 222 223 217 219 229 234 236 245 235 220 226 227 211 152 142 141 133 122 113 107 118 142 154 154 148 142 106 94 106 109 128 148 172 179 199 223 187 180 196 191 196 193 197 189 206 214 214 218 223 218 236 242 243 251 247 245 244 247 248 247 248 244 250 250 248 248 255 264 267 271 267 267 276 284
218 225 235 240 231 227 229 243 231 234 247 239 232 232 234 228 221 228 237 240 240 238 221 225 190 135 136 146 143 135 132 126 147 177 171 154 144 139 123 99 93 92 91 49 40 187 225 231 236 220 200 190 199 194 198 198 200 206 209 199 211 219 230 235 245 252 251 252 249 254 249 249 248 243 250 251 250 249 251 255 255 262 274 272 270 271 284
224 237 241 249 256 238 220 228 231 219 226 238 240 231 231 231 223 227 231 231 231 231 205 107 132 142 141 141 148 163 175 183 172 149 152 150 128 130 124 110 87 64 335 302 219 243 225 232 226 228 214 212 210 210 204 205 199 208 206 204 204 215 220 227 228 231 239 249 251 250 253 250 252 249 249 246 243 249 258 258 257 260 261 274 282 283 286
226 239 252 253 252 244 222 228 230 226 217 225 232 230 226 227 225 228 231 225 159 113 130 133 131 139 152 162 170 174 175 140 122 136 137 138 139 131 125 134 136 120 339 307 266 241 241 233 232 228 211 207 218 225 214 207 206 205 208 194 208 219 219 226 232 241 243 243 251 248 249 248 249 247 245 246 253 257 253 258 257 255 256 264 275 289 291
218 222 240 247 250 242 229 230 238 239 234 237 248 247 247 235 217 217 128 118 137 142 136 138 140 158 174 164 134 110 107 119 122 127 130 124 125 128 132 135 147 162 131 280 272 223 241 236 228 228 211 200 211 224 226 210 201 204 200 198 205 215 225 238 244 242 257 251 248 253 254 255 258 260 262 260 259 252 248 254 256 258 258 260 268 276 288
243 213 233 243 264 269 259 289 25 54 253 306 16 57 259 171 126 126 130 130 130 140 140 144 150 138 117 103 101 118 119 120 122 119 120 131 135 130 145 161 195 165 190 221 232 204 268 202 181 169 163 181 202 218 220 214 206 183 186 199 204 215 226 233 245 249 252 252 247 246 248 250 253 259 259 257 250 250 253 252 256 260 262 262 263 267 271
271 229 51 16 70 90 92 37 30 33 88 225 212 74 62 116 122 114 113 116 120 128 127 123 121 126 130 127 127 116 127 133 127 124 124 132 146 154 192 208 212 194 200 187 162 217 229 70 96 121 184 222 229 245 253 257 234 191 193 197 207 209 227 230 238 250 251 252 250 249 249 253 249 251 254 249 248 249 249 252 256 258 263 267 270 270 269
263 296 220 96 108 86 91 61 37 19 348 327 179 175 164 133 131 121 117 116 114 118 134 138 138 138 146 139 139 139 139 123 120 123 126 131 108 98 334 281 248 235 242 248 253 254 247 251 247 242 246 247 232 240 244 229 230 197 192 198 209 217 225 231 239 248 257 254 257 261 254 250 250 252 253 253 253 252 253 257 260 263 268 269 265 267 271
4 57 67 77 92 85 108 115 83 31 25 30 45 88 122 134 133 124 128 126 112 99 105 115 126 122 131 134 127 126 127 125 122 127 132 113 101 87 89 290 294 253 212 195 197 218 229 224 199 219 240 237 235 227 226 235 220 199 195 199 208 214 228 232 238 242 247 250 246 247 248 251 257 259 255 258 257 257 256 258 261 261 257 267 274 272 267
21 81 87 89 96 101 96 110 116 85 50 35 41 63 68 81 106 117 114 108 99 91 86 70 92 123 121 112 111 110 109 112 114 135 160 160 158 151 159 263 230 214 195 184 218 217 215 216 217 211 219 217 223 227 217 211 202 198 201 208 214 220 227 237 241 247 242 241 244 249 251 250 249 257 257 254 260 259 258 256 261 263 260 257 263 265 269
84 123 123 123 129 128 131 122 111 116 102 59 48 57 76 89 103 105 107 108 110 106 94 97 100 101 109 114 118 118 129 139 140 169 257 276 240 212 192 220 280 277 266 253 228 199 224 215 214 222 226 213 216 227 228 210 190 196 203 213 220 225 229 235 242 247 246 245 249 247 246 248 244 248 257 256 257 260 260 260 261 265 267 261 262 269 267
59 96 123 133 140 150 127 116 117 110 104 86 51 58 81 87 100 120 120 118 109 105 115 115 113 116 124 130 124 130 148 157 173 173 146 302 302 258 229 246 253 268 272 256 250 238 236 225 214 227 235 236 235 230 211 202 201 202 211 213 224 227 237 243 247 243 244 244 245 248 245 242 244 245 244 256 262 262 255 256 258 259 265 270 266 267 271
43 52 76 105 124 116 119 128 127 120 109 104 81 63 65 82 79 83 108 111 113 115 113 121 126 129 139 147 146 154 158 173 164 155 128 113 88 22 203 195 232 236 245 238 222 224 241 247 247 245 240 243 237 234 212 204 206 207 211 219 225 229 233 240 244 243 243 244 247 248 245 243 241 244 245 250 251 256 259 259 262 259 263 270 272 270 268
75 74 92 96 85 81 84 95 97 109 113 104 86 62 47 68 82 74 79 107 112 123 134 132 140 154 157 144 103 82 63 325 236 228 213 163 156 205 174 177 204 212 238 235 201 242 262 261 258 252 254 251 245 233 216 216 211 218 217 219 224 227 235 238 243 245 244 244 247 244 243 247 245 244 241 242 246 253 259 259 263 265 253 258 263 264 266
66 77 85 99 95 90 99 102 109 110 109 106 105 110 77 71 83 85 74 81 110 114 96 93 120 162 170 159 152 138 130 268 288 228 235 262 262 244 237 247 262 269 285 277 256 258 249 258 258 261 260 258 252 226 217 218 221 225 226 230 231 232 238 239 240 243 244 245 245 246 248 244 243 247 246 249 249 250 253 259 264 265 262 261 261 264 265
54 76 81 101 111 113 112 118 121 124 125 130 135 127 138 108 93 83 87 90 93 93 99 78 151 178 199 214 230 230 191 141 74 10 187 216 225 224 242 243 241 258 286 300 280 266 263 259 260 262 258 255 246 235 223 223 223 226 228 231 232 233 234 239 242 241 245 243 244 245 250 250 248 247 247 247 254 252 252 257 261 267 263 255 258 258 259
53 68 68 74 91 107 114 113 109 104 113 119 114 132 140 127 118 108 107 105 106 104 119 185 218 235 232 227 212 234 243 244 157 161 183 173 197 192 218 238 278 278 274 255 269 274 269 272 273 275 274 268 251 243 237 236 235 235 233 233 234 233 233 236 241 237 236 243 241 239 244 249 253 247 250 249 251 255 256 256 256 253 259 261 262 261 257
74 77 69 64 67 66 73 100 107 126 133 128 126 140 158 144 112 123 110 109 125 119 77 18 271 234 211 227 235 223 216 228 241 226 188 194 185 194 231 231 246 256 251 251 253 260 254 258 265 268 264 257 250 246 244 245 241 241 243 244 240 242 234 236 241 235 234 239 242 242 246 248 249 246 247 254 259 260 257 255 257 257 255 256 260 262 261
53 64 62 55 53 43 19 39 83 108 108 106 115 141 143 94 103 118 120 123 95 104 79 39 344 266 229 223 236 236 215 221 224 227 224 226 224 240 225 227 233 231 239 236 236 247 246 241 241 242 245 244 246 250 248 251 251 251 247 246 245 248 249 244 244 247 246 241 244 248 249 249 249 253 255 257 261 263 261 261 260 261 259 256 255 258 258
74 70 59 61 64 62 66 55 49 61 78 104 118 108 94 108 108 96 98 137 125 134 142 126 93 295 176 193 185 189 208 200 209 222 221 217 223 230 246 239 231 239 235 239 241 240 239 239 245 251 252 256 258 261 265 262 260 260 258 253 254 253 251 252 249 251 254 250 248 252 251 249 247 255 259 257 255 256 260 257 259 260 261 262 259 259 263